CSA899 LZIB-LZPP

Flight info

Callsign CSA899
Flight time 0h 12m
Altitude 8000
Route NIT
Aircraft A320/M-SDE3FGHIRWY/LB1

Departure

Time 2026-04-26 18:17
Airport M. R. Štefánik Airport (LZIB)

Arrival

Time 2026-04-26 18:29
Airport Piešťany Airport (LZPP)
Time Latitude Longitude Altitude Speed Heading
2026-04-26 17:45 48.16830 17.19960 430 ft 0 kts 314°
2026-04-26 17:59 48.16830 17.19961 429 ft 0 kts 314°
2026-04-26 17:59 48.16830 17.19960 429 ft 0 kts 314°
2026-04-26 18:01 48.16829 17.19961 429 ft 2 kts 314°
2026-04-26 18:02 48.16818 17.19979 416 ft 2 kts 313°
2026-04-26 18:02 48.16811 17.19991 420 ft 2 kts 313°
2026-04-26 18:02 48.16793 17.20010 422 ft 2 kts 358°
2026-04-26 18:02 48.16777 17.20006 418 ft 2 kts 31°
2026-04-26 18:03 48.16769 17.19999 427 ft 1 kts 43°
2026-04-26 18:07 48.16770 17.20001 428 ft 1 kts 44°
2026-04-26 18:07 48.16774 17.20006 419 ft 2 kts 44°
2026-04-26 18:08 48.16809 17.20060 425 ft 6 kts 45°
2026-04-26 18:08 48.16836 17.20101 429 ft 5 kts 45°
2026-04-26 18:08 48.16833 17.20172 424 ft 12 kts 120°
2026-04-26 18:08 48.16763 17.20283 425 ft 14 kts 135°
2026-04-26 18:09 48.16712 17.20388 423 ft 8 kts 76°
2026-04-26 18:09 48.16754 17.20438 429 ft 12 kts 44°
2026-04-26 18:09 48.16817 17.20533 425 ft 14 kts 45°
2026-04-26 18:09 48.16888 17.20643 420 ft 16 kts 46°
2026-04-26 18:10 48.16968 17.20768 421 ft 18 kts 46°
2026-04-26 18:10 48.17010 17.20889 429 ft 12 kts 118°
2026-04-26 18:10 48.16957 17.20971 423 ft 10 kts 135°
2026-04-26 18:10 48.16901 17.21053 422 ft 16 kts 135°
2026-04-26 18:11 48.16823 17.21179 430 ft 16 kts 132°
2026-04-26 18:11 48.16752 17.21293 424 ft 14 kts 133°
2026-04-26 18:11 48.16681 17.21404 430 ft 18 kts 134°
2026-04-26 18:11 48.16582 17.21558 423 ft 20 kts 134°
2026-04-26 18:12 48.16488 17.21703 424 ft 19 kts 134°
2026-04-26 18:12 48.16402 17.21834 429 ft 17 kts 134°
2026-04-26 18:12 48.16324 17.21953 426 ft 15 kts 134°
2026-04-26 18:12 48.16241 17.22083 429 ft 21 kts 134°
2026-04-26 18:13 48.16145 17.22234 425 ft 19 kts 133°
2026-04-26 18:13 48.16058 17.22371 427 ft 18 kts 134°
2026-04-26 18:13 48.15954 17.22533 429 ft 23 kts 134°
2026-04-26 18:13 48.15878 17.22650 423 ft 24 kts 134°
2026-04-26 18:14 48.15754 17.22841 425 ft 13 kts 135°
2026-04-26 18:14 48.15704 17.22936 427 ft 11 kts 119°
2026-04-26 18:14 48.15681 17.23038 427 ft 10 kts 103°
2026-04-26 18:14 48.15679 17.23049 429 ft 0 kts 103°
2026-04-26 18:15 48.15677 17.23061 429 ft 5 kts 103°
2026-04-26 18:15 48.15690 17.23166 422 ft 12 kts 48°
2026-04-26 18:15 48.15764 17.23198 421 ft 11 kts 323°
2026-04-26 18:16 48.15779 17.23175 421 ft 0 kts 311°
2026-04-26 18:16 48.15937 17.22935 429 ft 71 kts 315°
2026-04-26 18:16 48.16434 17.22165 427 ft 132 kts 314°
2026-04-26 18:17 48.17159 17.21020 653 ft 160 kts 315°
2026-04-26 18:17 48.18008 17.19893 1304 ft 164 kts 343°
2026-04-26 18:17 48.19102 17.20055 2039 ft 166 kts 29°
2026-04-26 18:17 48.20099 17.21011 2644 ft 177 kts 31°
2026-04-26 18:18 48.21185 17.22030 3169 ft 192 kts 30°
2026-04-26 18:18 48.22309 17.23230 3856 ft 203 kts 44°
2026-04-26 18:18 48.23148 17.24971 4666 ft 211 kts 53°
2026-04-26 18:18 48.23958 17.26823 5187 ft 213 kts 53°
2026-04-26 18:19 48.24777 17.28692 6017 ft 217 kts 52°
2026-04-26 18:19 48.25604 17.30634 6683 ft 227 kts 57°
2026-04-26 18:19 48.26115 17.33032 7047 ft 258 kts 79°
2026-04-26 18:19 48.26252 17.35855 7457 ft 283 kts 82°
2026-04-26 18:20 48.26378 17.38870 7907 ft 294 kts 83°
2026-04-26 18:20 48.26499 17.41936 8000 ft 294 kts 83°
2026-04-26 18:20 48.26619 17.45000 8017 ft 294 kts 83°
2026-04-26 18:20 48.26659 17.45994 8019 ft 294 kts 83°
2026-04-26 18:21 48.26870 17.51122 8022 ft 293 kts 83°
2026-04-26 18:21 48.27123 17.54129 8022 ft 287 kts 68°
2026-04-26 18:21 48.28052 17.56702 7911 ft 277 kts 49°
2026-04-26 18:21 48.29242 17.58973 7514 ft 275 kts 46°
2026-04-26 18:22 48.30455 17.61175 7132 ft 273 kts 46°
2026-04-26 18:22 48.31671 17.63354 6763 ft 271 kts 46°
2026-04-26 18:22 48.32871 17.65444 6522 ft 263 kts 45°
2026-04-26 18:22 48.34035 17.67488 6388 ft 252 kts 46°
2026-04-26 18:23 48.35145 17.69448 6250 ft 241 kts 46°
2026-04-26 18:23 48.36210 17.71319 6131 ft 230 kts 46°
2026-04-26 18:23 48.37266 17.73075 5875 ft 223 kts 37°
2026-04-26 18:23 48.38623 17.74160 5333 ft 220 kts 13°
2026-04-26 18:24 48.40098 17.74694 4988 ft 218 kts 12°
2026-04-26 18:24 48.41575 17.75231 4669 ft 218 kts 13°
2026-04-26 18:24 48.43055 17.75769 4363 ft 219 kts 13°
2026-04-26 18:24 48.44533 17.76305 4059 ft 215 kts 13°
2026-04-26 18:25 48.45947 17.76819 3769 ft 203 kts 13°
2026-04-26 18:25 48.47282 17.77304 3505 ft 192 kts 13°
2026-04-26 18:25 48.48530 17.77758 3280 ft 181 kts 13°
2026-04-26 18:25 48.49720 17.78191 3017 ft 171 kts 13°
2026-04-26 18:26 48.50844 17.78600 2780 ft 161 kts 13°
2026-04-26 18:26 48.51893 17.78982 2562 ft 150 kts 13°
2026-04-26 18:26 48.52870 17.79338 2368 ft 139 kts 13°
2026-04-26 18:26 48.53790 17.79673 2197 ft 134 kts 13°
2026-04-26 18:27 48.54707 17.79993 1997 ft 139 kts 13°
2026-04-26 18:27 48.55617 17.80294 1855 ft 132 kts 14°
2026-04-26 18:27 48.56505 17.80658 1677 ft 132 kts 15°
2026-04-26 18:27 48.57396 17.81009 1417 ft 132 kts 13°
2026-04-26 18:28 48.58280 17.81314 1217 ft 128 kts 12°
2026-04-26 18:28 48.59134 17.81618 1086 ft 125 kts 14°
2026-04-26 18:28 48.59991 17.81940 953 ft 128 kts 14°
2026-04-26 18:28 48.60865 17.82255 751 ft 130 kts 15°
2026-04-26 18:29 48.61738 17.82573 571 ft 127 kts 15°
2026-04-26 18:29 48.62258 17.82766 535 ft 93 kts 13°
2026-04-26 18:29 48.62609 17.82897 533 ft 26 kts 13°
2026-04-26 18:29 48.62794 17.82965 535 ft 17 kts 17°
2026-04-26 18:30 48.62837 17.82974 534 ft 1 kts 292°
2026-04-26 18:30 48.62815 17.82954 534 ft 8 kts 186°
2026-04-26 18:30 48.62775 17.82947 535 ft 9 kts 187°
2026-04-26 18:30 48.62701 17.82921 535 ft 8 kts 195°
2026-04-26 18:31 48.62665 17.82906 534 ft 8 kts 195°
2026-04-26 18:31 48.62609 17.82885 533 ft 8 kts 194°
2026-04-26 18:31 48.62532 17.82857 534 ft 15 kts 192°
2026-04-26 18:31 48.62437 17.82826 534 ft 13 kts 192°
2026-04-26 18:32 48.62352 17.82799 534 ft 12 kts 192°
2026-04-26 18:32 48.62280 17.82773 535 ft 10 kts 194°
2026-04-26 18:32 48.62195 17.82739 536 ft 19 kts 195°
2026-04-26 18:32 48.62067 17.82685 535 ft 18 kts 195°
2026-04-26 18:33 48.61950 17.82645 536 ft 16 kts 190°
2026-04-26 18:33 48.61843 17.82613 535 ft 16 kts 192°
2026-04-26 18:33 48.61740 17.82575 533 ft 15 kts 194°
2026-04-26 18:33 48.61653 17.82561 532 ft 10 kts 146°
2026-04-26 18:34 48.61627 17.82635 534 ft 6 kts 104°
2026-04-26 18:34 48.61618 17.82691 534 ft 5 kts 103°
2026-04-26 18:34 48.61602 17.82793 534 ft 15 kts 103°
2026-04-26 18:34 48.61573 17.82938 534 ft 12 kts 133°
2026-04-26 18:35 48.61499 17.82961 534 ft 11 kts 184°
2026-04-26 18:35 48.61405 17.82952 534 ft 18 kts 183°
2026-04-26 18:35 48.61279 17.82941 534 ft 17 kts 183°
2026-04-26 18:35 48.61178 17.82974 534 ft 14 kts 130°
2026-04-26 18:36 48.61169 17.83104 534 ft 10 kts 94°
2026-04-26 18:36 48.61165 17.83173 534 ft 3 kts 119°
2026-04-26 18:36 48.61145 17.83178 534 ft 2 kts 180°
2026-04-26 18:36 48.61142 17.83178 534 ft 0 kts 181°